time_stamp(utc),avg(mph),gust(mph),direction(deg),12m_air_temp(f),sonic_u(cm/s),sonic_v(cm/s),sonic_w(cm/s),pressure,2m_air_temp(f),pyranometer(W/m^2)
"2018-12-12 00:02:07+00",9.6,10.6,,35.4,-426,-14,12,1014.54,34.1,0
"2018-12-12 00:07:07+00",11.0,13.0,,35.3,-483,-11,15,1014.55,33.9,0
"2018-12-12 00:12:07+00",10.1,12.1,,35.3,-438,-23,17,1014.59,33.9,0
"2018-12-12 00:17:07+00",10.1,12.1,,35.1,-443,-10,13,1014.47,33.9,0
"2018-12-12 00:22:07+00",9.5,10.5,,34.8,-418,-26,29,1014.48,33.7,0
"2018-12-12 00:27:07+00",10.0,12.0,,34.7,-426,-37,23,1014.48,33.7,0
"2018-12-12 00:32:07+00",11.2,12.2,,34.6,-486,-50,13,1014.53,33.6,0
"2018-12-12 00:37:07+00",10.6,11.6,,34.6,-445,-77,14,1014.47,33.5,0
"2018-12-12 00:42:07+00",10.4,11.4,,34.6,-436,-80,6,1014.52,33.4,0
"2018-12-12 00:47:07+00",9.5,12.5,,34.4,-392,-84,9,1014.42,33.3,0
"2018-12-12 00:52:07+00",9.9,11.9,,34.4,-413,-92,15,1014.27,33.1,0
"2018-12-12 00:57:07+00",9.4,10.4,,34.1,-385,-96,6,1014.22,32.8,0
"2018-12-12 01:02:07+00",9.7,10.7,,34,-409,-75,4,1014.15,32.6,0
"2018-12-12 01:07:07+00",10.1,12.1,,34.2,-438,-54,11,1014.12,32.5,0
"2018-12-12 01:12:07+00",10.2,11.2,,34.3,-437,-49,8,1014.18,32.6,0
"2018-12-12 01:17:07+00",10.0,12.0,,34.3,-435,-23,9,1014.24,32.7,0
"2018-12-12 01:22:07+00",10.3,11.3,,34.2,-439,-12,17,1014.25,32.9,0
"2018-12-12 01:27:07+00",11.4,12.4,,34.3,-489,-54,20,1014.26,32.9,0
"2018-12-12 01:32:07+00",9.7,10.7,,34.2,-420,-13,26,1014.32,33,0
"2018-12-12 01:37:07+00",11.6,13.6,,34.2,-511,65,24,1014.28,33.1,0
"2018-12-12 01:42:07+00",9.1,11.1,,34.3,-391,104,35,1014.32,33.2,0
"2018-12-12 01:47:07+00",9.2,11.2,,34.2,-391,99,45,1014.35,33.3,0
"2018-12-12 01:52:07+00",9.3,10.3,,34.1,-400,100,40,1014.34,33.3,0
"2018-12-12 01:57:07+00",9.8,10.8,,34.1,-432,62,15,1014.44,33.4,0
"2018-12-12 02:02:07+00",9.3,11.3,,33.9,-404,91,25,1014.37,33.2,0
"2018-12-12 02:07:07+00",9.0,11.0,,34,-387,87,38,1014.42,33.2,0
"2018-12-12 02:12:07+00",9.7,10.7,,34,-416,113,40,1014.43,33.3,0
"2018-12-12 02:17:07+00",9.3,10.3,,33.8,-390,135,25,1014.49,33.2,0
"2018-12-12 02:22:07+00",9.3,10.3,,33.7,-386,157,20,1014.54,32.9,0
"2018-12-12 02:27:07+00",8.6,11.6,,33.7,-353,132,24,1014.59,32.7,0
"2018-12-12 02:32:07+00",8.8,9.8,,33.8,-356,166,24,1014.59,32.6,0
"2018-12-12 02:37:07+00",7.8,9.8,,33.4,-322,133,18,1014.49,32.5,0
"2018-12-12 02:42:07+00",8.9,10.9,,33.4,-366,123,15,1014.48,32.3,0
"2018-12-12 02:47:07+00",10.5,11.5,,33.7,-443,170,35,1014.54,32.4,0
"2018-12-12 02:52:07+00",12.0,14.0,,33.5,-491,201,19,1014.48,32.4,0
"2018-12-12 02:57:07+00",10.9,12.9,,33.7,-471,141,38,1014.56,32.6,0
"2018-12-12 03:02:07+00",11.5,12.5,,33.6,-482,190,33,1014.57,32.9,0
"2018-12-12 03:07:07+00",10.4,11.4,,33.4,-440,139,31,1014.54,32.9,0
"2018-12-12 03:12:07+00",9.8,10.8,,33.4,-424,150,34,1014.56,32.9,0
"2018-12-12 03:17:07+00",10.7,11.7,,33.3,-438,176,29,1014.58,32.8,0
"2018-12-12 03:22:07+00",10.1,12.1,,33.3,-408,194,35,1014.59,32.6,0
"2018-12-12 03:27:07+00",10.9,11.9,,33.4,-435,202,31,1014.58,32.6,0
"2018-12-12 03:32:07+00",11.4,14.4,,33.4,-470,216,39,1014.58,32.5,0
"2018-12-12 03:37:07+00",10.4,11.4,,33.3,-424,199,37,1014.58,32.5,0
"2018-12-12 03:42:07+00",11.0,13.0,,33.3,-418,239,25,1014.61,32.4,0
"2018-12-12 03:47:07+00",10.9,11.9,,33.3,-415,266,36,1014.59,32.4,0
"2018-12-12 03:52:07+00",10.3,11.3,,33.3,-401,226,32,1014.53,32.3,0
"2018-12-12 03:57:07+00",10.2,11.2,,33.1,-415,198,26,1014.61,32.2,0
"2018-12-12 04:02:07+00",11.2,12.2,,33.1,-460,215,20,1014.53,32.2,0
"2018-12-12 04:07:07+00",10.1,12.1,,33,-412,189,22,1014.6,32.1,0
"2018-12-12 04:12:07+00",9.1,10.1,,33,-357,179,20,1014.61,32.1,0
"2018-12-12 04:17:07+00",9.9,10.9,,33.2,-387,204,25,1014.66,32.1,0
"2018-12-12 04:22:07+00",9.4,10.4,,33,-362,193,26,1014.57,32,0
"2018-12-12 04:27:07+00",10.1,12.1,,33,-381,241,27,1014.5,32,0
"2018-12-12 04:32:07+00",11.8,12.8,,33,-442,288,25,1014.53,32,0
"2018-12-12 04:37:07+00",10.8,11.8,,33,-423,230,25,1014.55,32,0
"2018-12-12 04:42:07+00",11.1,12.1,,33,-451,213,25,1014.49,32,0
"2018-12-12 04:47:07+00",9.9,10.9,,33,-410,168,28,1014.51,32.1,0
"2018-12-12 04:52:07+00",10.5,11.5,,33,-428,187,26,1014.48,32.2,0
"2018-12-12 04:57:07+00",9.9,10.9,,33,-405,177,29,1014.49,32.2,0
"2018-12-12 05:02:07+00",9.7,10.7,,32.9,-400,164,25,1014.46,32.3,0
"2018-12-12 05:07:07+00",8.9,8.9,,33,-351,194,20,1014.42,32.3,0
"2018-12-12 05:12:07+00",8.7,9.7,,33.1,-339,191,25,1014.39,32.1,0
"2018-12-12 05:17:07+00",7.8,9.8,,33.1,-291,189,19,1014.46,32,0
"2018-12-12 05:22:07+00",7.6,8.6,,33,-296,158,24,1014.36,32,0
"2018-12-12 05:27:07+00",7.8,8.8,,32.9,-328,136,19,1014.35,31.9,0
"2018-12-12 05:32:07+00",7.9,8.9,,33,-315,156,21,1014.34,31.9,0
"2018-12-12 05:37:07+00",8.8,10.8,,33.1,-355,168,10,1014.34,31.8,0
"2018-12-12 05:42:07+00",8.2,9.2,,33.1,-329,161,19,1014.32,31.8,0
"2018-12-12 05:47:07+00",8.5,9.5,,33.1,-340,172,20,1014.39,31.9,0
"2018-12-12 05:52:07+00",7.9,8.9,,33.2,-316,167,18,1014.37,32,0
"2018-12-12 05:57:07+00",8.2,9.2,,33.2,-326,160,21,1014.33,32.2,0
"2018-12-12 06:02:07+00",7.9,8.9,,33.2,-331,109,32,1014.36,32.3,0
"2018-12-12 06:07:07+00",9.3,10.3,,33.2,-381,143,14,1014.28,32.4,0
"2018-12-12 06:12:07+00",8.5,9.5,,33.1,-347,130,18,1014.29,32.5,0
"2018-12-12 06:17:07+00",9.0,10.0,,33.1,-360,156,17,1014.38,32.5,0
"2018-12-12 06:22:07+00",9.3,10.3,,33.1,-383,162,29,1014.48,32.4,0
"2018-12-12 06:27:07+00",8.8,9.8,,33,-359,160,17,1014.49,32.4,0
"2018-12-12 06:32:07+00",9.6,10.6,,33,-390,159,17,1014.53,32.3,0
"2018-12-12 06:37:07+00",9.8,10.8,,32.9,-408,168,26,1014.55,32.3,0
"2018-12-12 06:42:07+00",8.6,9.6,,32.8,-353,152,16,1014.64,32.2,0
"2018-12-12 06:47:07+00",8.2,10.2,,32.8,-349,102,17,1014.64,32.2,0
"2018-12-12 06:52:07+00",9.3,10.3,,32.8,-386,135,26,1014.73,32.2,0
"2018-12-12 06:57:07+00",8.8,9.8,,32.8,-379,116,35,1014.72,32.2,0
"2018-12-12 07:02:07+00",10.3,12.3,,32.6,-449,100,27,1014.73,32.1,0
"2018-12-12 07:07:07+00",10.0,11.0,,32.6,-428,106,15,1014.7,32.1,0
"2018-12-12 07:12:07+00",9.3,11.3,,32.5,-414,37,21,1014.59,32,0
"2018-12-12 07:17:07+00",10.2,11.2,,32.2,-451,62,21,1014.77,31.7,0
"2018-12-12 07:22:07+00",10.3,11.3,,32.3,-441,129,37,1014.77,31.6,0
"2018-12-12 07:27:07+00",11.0,13.0,,32.5,-459,189,25,1014.75,31.8,0
"2018-12-12 07:32:07+00",12.5,13.5,,32.6,-482,285,40,1014.91,31.9,0
"2018-12-12 07:37:07+00",13.4,14.4,,32.3,-517,301,39,1014.93,32,0
"2018-12-12 07:42:07+00",12.7,14.7,,32,-499,268,36,1014.99,31.9,0
"2018-12-12 07:47:07+00",12.0,13.0,,31.9,-475,276,33,1015.01,31.7,0
"2018-12-12 07:52:07+00",11.0,13.0,,31.8,-418,257,40,1015.09,31.6,0
"2018-12-12 07:57:07+00",12.4,13.4,,31.6,-499,243,39,1015.03,31.4,0
"2018-12-12 08:02:07+00",12.4,13.4,,31.5,-496,256,30,1015.16,31.3,0
"2018-12-12 08:07:07+00",9.5,11.5,,31.5,-380,202,35,1015.04,31.3,0
"2018-12-12 08:12:07+00",11.3,13.3,,31.9,-428,268,33,1015.15,31.3,0
"2018-12-12 08:17:07+00",13.2,15.2,,32.1,-493,317,39,1015.22,31.5,0
"2018-12-12 08:22:07+00",13.7,14.7,,32.1,-519,331,27,1015.09,31.7,0
"2018-12-12 08:27:07+00",14.0,15.0,,32.1,-510,376,35,1015.16,31.7,0
"2018-12-12 08:32:07+00",12.9,14.9,,32,-471,340,32,1015.19,31.7,0
"2018-12-12 08:37:07+00",12.2,13.2,,31.9,-450,305,35,1015.29,31.6,0
"2018-12-12 08:42:07+00",10.6,12.6,,31.8,-369,307,44,1015.24,31.5,0
"2018-12-12 08:47:07+00",10.6,11.6,,31.7,-377,278,39,1015.27,31.4,0
"2018-12-12 08:52:07+00",12.2,13.2,,31.7,-431,326,28,1015.3,31.3,0
"2018-12-12 08:57:07+00",10.6,12.6,,31.5,-357,311,25,1015.35,31.2,0
"2018-12-12 09:02:07+00",10.7,11.7,,31.5,-387,278,39,1015.33,31.2,0
"2018-12-12 09:07:07+00",10.4,12.4,,31.5,-389,261,33,1015.42,31.2,0
"2018-12-12 09:12:07+00",11.3,12.3,,31.5,-413,294,27,1015.4,31.1,0
"2018-12-12 09:17:07+00",11.5,13.5,,31.6,-392,329,30,1015.52,31.1,0
"2018-12-12 09:22:07+00",11.5,12.5,,31.7,-400,325,29,1015.56,31.3,0
"2018-12-12 09:27:07+00",10.4,12.4,,31.9,-364,288,34,1015.73,31.4,0
"2018-12-12 09:32:07+00",11.4,14.4,,32,-419,299,27,1015.68,31.5,0
"2018-12-12 09:37:07+00",10.6,11.6,,32,-398,284,36,1015.68,31.5,0
"2018-12-12 09:42:07+00",11.6,12.6,,32.1,-399,336,17,1015.83,31.6,0
"2018-12-12 09:47:07+00",10.5,12.5,,32.1,-365,300,37,1015.9,31.6,0
"2018-12-12 09:52:07+00",11.4,12.4,,32.1,-419,295,29,1015.92,31.5,0
"2018-12-12 09:57:07+00",11.3,13.3,,32.2,-411,305,28,1015.99,31.3,0
"2018-12-12 10:02:07+00",13.8,15.8,,32.5,-466,395,47,1016.11,31.5,0
"2018-12-12 10:07:07+00",13.9,14.9,,32.7,-471,412,25,1016.18,31.7,0
"2018-12-12 10:12:07+00",14.5,16.5,,32.7,-473,429,34,1016.24,31.8,0
"2018-12-12 10:17:07+00",13.3,15.3,,32.7,-448,402,48,1016.43,31.9,0
"2018-12-12 10:22:07+00",13.1,16.1,,32.8,-437,398,47,1016.6,31.9,0
"2018-12-12 10:27:07+00",13.2,15.2,,32.9,-430,411,44,1016.54,32,0
"2018-12-12 10:32:07+00",13.6,14.6,,32.9,-425,444,42,1016.78,32,0
"2018-12-12 10:37:07+00",13.5,15.5,,33.1,-435,416,63,1016.92,32.2,0
"2018-12-12 10:42:07+00",13.8,15.8,,33.1,-454,402,43,1016.88,32.2,0
"2018-12-12 10:47:07+00",14.6,16.6,,33,-500,424,35,1016.92,32.1,0
"2018-12-12 10:52:07+00",13.6,17.6,,32.9,-469,397,45,1017.13,32,0
"2018-12-12 10:57:07+00",12.2,14.2,,32.8,-413,360,53,1017.21,32,0
"2018-12-12 11:02:07+00",13.0,15.0,,32.9,-441,383,37,1017.19,31.9,0
"2018-12-12 11:07:07+00",14.5,15.5,,32.9,-474,431,39,1017.2,31.9,0
"2018-12-12 11:12:07+00",13.7,14.7,,32.8,-468,387,36,1017.32,31.9,0
"2018-12-12 11:17:07+00",12.2,14.2,,32.6,-430,345,33,1017.38,31.7,0
"2018-12-12 11:22:07+00",11.3,12.3,,32.6,-417,298,39,1017.41,31.6,0
"2018-12-12 11:27:07+00",12.4,14.4,,32.7,-461,319,32,1017.45,31.6,0
"2018-12-12 11:32:07+00",10.5,11.5,,32.8,-402,262,41,1017.48,31.6,0
"2018-12-12 11:37:07+00",13.3,16.3,,32.9,-497,326,20,1017.59,31.7,0
"2018-12-12 11:42:07+00",13.3,16.3,,33,-523,300,37,1017.66,31.8,0
"2018-12-12 11:47:07+00",14.3,16.3,,33.1,-574,268,38,1017.72,31.9,0
"2018-12-12 11:52:07+00",13.2,16.2,,33.1,-558,212,34,1017.8,32,0
"2018-12-12 11:57:07+00",12.1,14.1,,32.9,-509,152,49,1017.83,32.2,0
"2018-12-12 12:02:07+00",12.7,13.7,,32.7,-539,204,40,1017.88,32.1,0
"2018-12-12 12:07:07+00",14.5,16.5,,32.8,-598,246,36,1017.88,32,0
"2018-12-12 12:12:07+00",14.8,16.8,,32.8,-596,291,26,1017.93,31.9,0
"2018-12-12 12:17:07+00",15.0,16.0,,32.7,-612,283,24,1017.9,31.9,0
"2018-12-12 12:22:07+00",13.1,15.1,,32.7,-526,284,42,1017.9,31.9,0
"2018-12-12 12:27:07+00",16.0,18.0,,32.9,-618,350,32,1017.9,32,0
"2018-12-12 12:32:07+00",13.9,15.9,,32.9,-533,301,36,1017.97,32.2,0
"2018-12-12 12:37:07+00",12.8,14.8,,32.8,-516,252,35,1018.1,32.3,1.6
"2018-12-12 12:42:07+00",14.3,16.3,,32.8,-581,280,39,1018.26,32.4,8.4
"2018-12-12 12:47:07+00",13.0,16.0,,32.7,-536,241,25,1018.26,32.6,16.2
"2018-12-12 12:52:07+00",12.0,15.0,,32.7,-479,237,37,1018.4,32.8,22.6
"2018-12-12 12:57:07+00",14.2,17.2,,32.7,-574,258,31,1018.58,32.9,29.4
"2018-12-12 13:02:07+00",15.6,16.6,,32.8,-634,296,28,1018.71,33,38
"2018-12-12 13:07:07+00",14.1,16.1,,32.9,-555,316,19,1018.91,33.1,45.4
"2018-12-12 13:12:07+00",14.8,15.8,,33.1,-546,381,47,1019.07,33.3,53.3
"2018-12-12 13:17:07+00",14.1,18.1,,33.4,-475,435,42,1019.08,33.5,62.2
"2018-12-12 13:22:07+00",14.6,15.6,,33.2,-459,465,30,1019.33,33.6,71.8
"2018-12-12 13:27:07+00",13.0,17.0,,32.7,-417,423,39,1019.25,33.4,79.9
"2018-12-12 13:32:07+00",13.7,16.7,,32.2,-400,463,31,1019.31,33.1,90.9
"2018-12-12 13:37:07+00",12.0,14.0,,32.3,-332,419,30,1019.27,33.2,99.7
"2018-12-12 13:42:07+00",12.2,13.2,,32.9,-321,425,31,1019.24,33.5,106.1
"2018-12-12 13:47:07+00",12.7,16.7,,33.5,-306,470,42,1019.19,34,116.5
"2018-12-12 13:52:07+00",16.4,18.4,,34.2,-400,603,27,1019.35,34.6,124
"2018-12-12 13:57:07+00",14.5,16.5,,34.5,-370,525,36,1019.45,35,132
"2018-12-12 14:02:07+00",18.1,21.1,,34.6,-441,668,27,1019.4,35.3,140.4
"2018-12-12 14:07:07+00",16.3,19.3,,34.6,-466,556,56,1019.56,35.4,147.8
"2018-12-12 14:12:07+00",14.7,17.7,,34.8,-379,530,32,1019.65,35.6,154.1
"2018-12-12 14:17:07+00",14.9,17.9,,34.8,-456,490,32,1019.71,35.8,162.8
"2018-12-12 14:22:07+00",15.2,17.2,,35,-410,536,31,1019.68,36,169.2
"2018-12-12 14:27:07+00",16.0,18.0,,35.1,-383,598,32,1019.79,36.1,177.3
"2018-12-12 14:32:07+00",12.9,13.9,,35.2,-383,421,46,1019.86,36.2,183.6
"2018-12-12 14:37:07+00",14.7,16.7,,35.4,-435,490,38,1019.84,36.5,184.9
"2018-12-12 14:42:07+00",13.0,17.0,,35.8,-399,431,44,1020.08,36.7,194.7
"2018-12-12 14:47:07+00",11.2,12.2,,36,-305,396,79,1020.05,37,197
"2018-12-12 14:52:07+00",13.1,14.1,,36,-369,449,27,1020.17,37.1,203.1
"2018-12-12 14:57:07+00",11.4,15.4,,36.4,-286,410,56,1020.29,37.3,198.2
"2018-12-12 15:02:07+00",14.4,18.4,,36.5,-346,529,16,1020.26,37.6,214.9
"2018-12-12 15:07:07+00",13.1,15.1,,36.7,-338,470,34,1020.31,38,209.8
"2018-12-12 15:12:07+00",14.2,17.2,,37.1,-295,547,38,1020.34,38.2,222.1
"2018-12-12 15:17:07+00",15.9,18.9,,37.2,-302,620,27,1020.34,38.5,225.1
"2018-12-12 15:22:07+00",17.9,20.9,,37.3,-538,576,50,1020.36,38.5,230.8
"2018-12-12 15:27:07+00",17.7,19.7,,37.6,-425,660,34,1020.36,38.9,234
"2018-12-12 15:32:07+00",12.3,14.3,,37.7,-296,450,1,1020.57,39.1,236.8
"2018-12-12 15:37:07+00",15.7,17.7,,37.8,-526,468,36,1020.48,39.2,240.8
"2018-12-12 15:42:07+00",16.2,17.2,,37.8,-444,563,35,1020.68,39.2,244.9
"2018-12-12 15:47:07+00",14.0,15.0,,38,-414,465,36,1020.61,39.5,245.5
"2018-12-12 15:52:07+00",14.9,16.9,,38.3,-466,472,63,1020.55,39.6,249.7
"2018-12-12 15:57:07+00",12.6,13.6,,38.1,-369,420,23,1020.5,39.7,251.8
"2018-12-12 16:02:07+00",11.7,13.7,,38.4,-387,353,47,1020.39,40.1,254
"2018-12-12 16:07:07+00",14.8,15.8,,38.4,-518,418,37,1020.25,40.2,255.2
"2018-12-12 16:12:07+00",13.7,14.7,,38.5,-479,377,40,1020.26,40.2,260
"2018-12-12 16:17:07+00",13.4,15.4,,38.8,-487,369,55,1020.25,40.3,262.6
"2018-12-12 16:22:07+00",12.8,15.8,,38.8,-370,433,33,1020.18,40.4,265
"2018-12-12 16:27:07+00",11.4,12.4,,38.7,-380,333,17,1020.14,40.4,264
"2018-12-12 16:32:07+00",11.3,12.3,,38.9,-377,320,13,1020.04,40.7,267
"2018-12-12 16:37:07+00",10.2,12.2,,39.2,-354,284,52,1019.93,41,268.4
"2018-12-12 16:42:07+00",13.8,15.8,,39.2,-440,427,34,1019.84,41,268.4
"2018-12-12 16:47:07+00",11.4,13.4,,39.4,-423,285,49,1019.79,41.3,264.2
"2018-12-12 16:52:07+00",10.2,12.2,,39.5,-370,275,47,1019.97,41.4,247.2
"2018-12-12 16:57:07+00",10.7,13.7,,39.6,-321,341,29,1019.71,41.6,238.8
"2018-12-12 17:02:07+00",10.2,11.2,,39.6,-376,243,23,1019.81,41.6,233.7
"2018-12-12 17:07:07+00",11.2,12.2,,39.8,-378,328,32,1019.78,41.8,215.9
"2018-12-12 17:12:07+00",10.9,12.9,,40,-424,231,18,1019.86,41.9,254.7
"2018-12-12 17:17:07+00",6.1,7.1,,40.3,-195,185,31,1019.72,42.5,258.3
"2018-12-12 17:22:07+00",8.3,9.3,,40.5,-276,244,34,1019.74,43,239.8
"2018-12-12 17:27:07+00",8.9,9.9,,40.4,-272,279,0,1019.57,43,253.7
"2018-12-12 17:32:07+00",10.6,12.6,,40.5,-412,241,37,1019.56,42.9,258.9
"2018-12-12 17:37:07+00",8.1,12.1,,40.7,-307,181,76,1019.7,43.1,241
"2018-12-12 17:42:07+00",8.3,10.3,,40.7,-289,215,43,1019.74,43,224.3
"2018-12-12 17:47:07+00",9.2,11.2,,41,-335,225,54,1019.9,43.2,216.5
"2018-12-12 17:52:07+00",9.8,10.8,,40.9,-376,203,48,1019.84,43.1,216
"2018-12-12 17:57:07+00",10.7,11.7,,40.9,-370,302,25,1019.84,42.9,206.8
"2018-12-12 18:02:07+00",10.5,12.5,,41,-413,211,20,1019.75,42.8,165.1
"2018-12-12 18:07:07+00",9.4,10.4,,41,-328,264,33,1019.65,42.8,179.3
"2018-12-12 18:12:07+00",10.2,12.2,,41.1,-368,282,29,1019.74,42.9,198.6
"2018-12-12 18:17:07+00",11.4,12.4,,41.4,-302,393,26,1019.69,42.9,188.1
"2018-12-12 18:22:07+00",10.9,12.9,,41.4,-388,294,32,1019.79,43,179.9
"2018-12-12 18:27:07+00",8.3,10.3,,41.3,-328,163,44,1019.83,42.9,138.7
"2018-12-12 18:32:07+00",10.8,11.8,,41.2,-386,292,33,1019.78,42.7,155.6
"2018-12-12 18:37:07+00",8.6,11.6,,41.3,-283,250,20,1019.74,42.7,172.1
"2018-12-12 18:42:07+00",14.2,17.2,,41.5,-355,507,42,1019.6,42.8,207.8
"2018-12-12 18:47:07+00",9.7,10.7,,41.6,-160,388,35,1019.66,43,230.3
"2018-12-12 18:52:07+00",10.7,11.7,,41.8,-236,419,13,1019.64,43.4,229.3
"2018-12-12 18:57:07+00",8.8,10.8,,41.9,-242,295,17,1019.63,43.6,202.6
"2018-12-12 19:02:07+00",7.9,8.9,,41.8,-210,268,14,1019.45,43.5,180.2
"2018-12-12 19:07:07+00",6.8,7.8,,41.9,-204,220,28,1019.53,43.7,151.1
"2018-12-12 19:12:07+00",7.4,8.4,,41.8,-269,192,24,1019.56,43.7,139.4
"2018-12-12 19:17:07+00",7.2,9.2,,41.9,-152,267,19,1019.57,43.7,109.5
"2018-12-12 19:22:07+00",6.1,6.1,,41.8,-265,48,20,1019.64,43.6,56.9
"2018-12-12 19:27:07+00",6.7,8.7,,41.6,-278,110,19,1019.62,43.5,74.8
"2018-12-12 19:32:07+00",5.6,6.6,,41.6,-228,104,29,1019.82,43.3,114.6
"2018-12-12 19:37:07+00",6.4,7.4,,41.7,-212,180,25,1019.87,43.2,66.2
"2018-12-12 19:42:07+00",5.3,5.3,,41.7,-179,136,12,1019.85,43,64.3
"2018-12-12 19:47:07+00",4.2,5.2,,41.6,-148,106,13,1019.87,42.9,81.9
"2018-12-12 19:52:07+00",3.3,4.3,,41.8,-103,85,3,1019.77,43.1,81.6
"2018-12-12 19:57:07+00",2.8,3.8,,41.9,-113,25,-2,1019.73,43.4,128.2
"2018-12-12 20:02:07+00",4.6,5.6,,42.2,-198,21,22,1019.86,44.3,154.6
"2018-12-12 20:07:07+00",5.1,6.1,,42.2,-217,46,21,1019.91,44.9,156
"2018-12-12 20:12:07+00",4.8,6.8,,42.4,-149,147,8,1019.8,45.3,109.5
"2018-12-12 20:17:07+00",4.0,5.0,,42.3,-123,117,30,1019.77,45.1,104.3
"2018-12-12 20:22:07+00",5.3,6.3,,42.5,-202,118,17,1019.71,45,88.8
"2018-12-12 20:27:07+00",3.5,4.5,,42.5,-41,134,14,1019.76,44.8,73.1
"2018-12-12 20:32:07+00",5.0,6.0,,42.4,-81,198,9,1019.87,44.7,46.2
"2018-12-12 20:37:07+00",3.8,3.8,,42.3,-84,130,5,1019.96,44.5,45.7
"2018-12-12 20:42:07+00",4.9,5.9,,42.1,-157,138,24,1020.09,44.3,0
"2018-12-12 20:47:07+00",4.3,4.3,,41.8,-135,124,11,1020.17,43.5,1.1
"2018-12-12 20:52:07+00",2.8,3.8,,41.8,-41,108,11,1020.24,42.9,4
"2018-12-12 20:57:07+00",1.7,1.7,,41.8,-52,41,10,1020.37,42.6,0
"2018-12-12 21:02:07+00",3.2,4.2,,41.5,-133,10,20,1020.52,42.2,0
"2018-12-12 21:07:07+00",3.2,3.2,,41.2,-133,-14,11,1020.52,41.6,0
"2018-12-12 21:12:07+00",2.0,2.0,,41.2,-80,15,3,1020.62,41,0
"2018-12-12 21:17:07+00",2.6,2.6,,41.1,-107,14,1,1020.64,40.5,0
"2018-12-12 21:22:07+00",3.6,3.6,,41.1,-153,15,4,1020.61,40.1,0
"2018-12-12 21:27:07+00",2.4,2.4,,41.1,-99,27,6,1020.65,39.7,0
"2018-12-12 21:32:07+00",3.1,4.1,,40.9,-114,61,4,1020.67,39.4,0
"2018-12-12 21:37:07+00",3.1,3.1,,40.2,-100,81,-3,1020.66,39,0
"2018-12-12 21:42:07+00",2.7,3.7,,40.1,-112,36,-1,1020.7,38.7,0
"2018-12-12 21:47:07+00",4.2,5.2,,40.3,-172,54,5,1020.87,38.4,0
"2018-12-12 21:52:07+00",5.4,5.4,,40.4,-224,70,9,1020.78,38,0
"2018-12-12 21:57:07+00",5.1,6.1,,40.9,-214,54,11,1020.96,37.6,0
"2018-12-12 22:02:07+00",6.1,6.1,,41,-254,97,18,1020.97,37.1,0
"2018-12-12 22:07:07+00",6.3,6.3,,40.9,-252,121,17,1020.99,36.7,0
"2018-12-12 22:12:07+00",6.5,7.5,,40.7,-269,103,15,1020.9,36.5,0
"2018-12-12 22:17:07+00",7.0,7.0,,40.4,-281,129,19,1021.04,36.4,0
"2018-12-12 22:22:07+00",5.8,5.8,,39.9,-233,103,13,1021.2,36.3,0
"2018-12-12 22:27:07+00",5.8,6.8,,39.2,-242,89,11,1021.21,36.1,0
"2018-12-12 22:32:07+00",4.9,4.9,,39.2,-204,69,11,1021.35,36,0
"2018-12-12 22:37:07+00",5.0,6.0,,39.1,-216,29,9,1021.31,36,0
"2018-12-12 22:42:07+00",3.5,4.5,,38.9,-145,17,-2,1021.24,36,0
"2018-12-12 22:47:07+00",2.8,3.8,,39.1,-101,55,5,1021.18,36,0
"2018-12-12 22:52:07+00",2.8,3.8,,39.1,-98,63,4,1021.22,36,0
"2018-12-12 22:57:07+00",1.8,1.8,,38.9,-49,53,0,1021.29,36.1,0
"2018-12-12 23:02:07+00",2.2,2.2,,38.8,9,87,3,1021.17,36.4,0
"2018-12-12 23:07:07+00",2.3,2.3,,38.6,-91,28,1,1021.49,36.2,0
"2018-12-12 23:12:07+00",2.4,2.4,,38.6,-83,54,1,1021.59,36.1,0
"2018-12-12 23:17:07+00",2.4,2.4,,38.7,-99,21,1,1021.61,36.1,0
"2018-12-12 23:22:07+00",2.7,2.7,,38.8,-111,17,0,1021.77,36.1,0
"2018-12-12 23:27:07+00",1.7,1.7,,38.9,-64,26,0,1021.7,36.1,0
"2018-12-12 23:32:07+00",2.1,3.1,,39,-87,30,0,1021.74,36.3,0
"2018-12-12 23:37:07+00",2.7,2.7,,39.3,-103,38,4,1021.82,36.5,0
"2018-12-12 23:42:07+00",2.2,2.2,,39.3,-88,5,2,1021.8,36.5,0
"2018-12-12 23:47:07+00",2.6,2.6,,38.9,-76,-72,2,1021.86,36.2,0
"2018-12-12 23:52:07+00",2.3,3.3,,38.8,-96,-47,2,1021.84,35.8,0
"2018-12-12 23:57:07+00",4.0,4.0,,38.7,-144,-89,8,1022.04,35.7,0
